Location: Newark
(48.1281°N, 2.1556°W)
Time: 08:13:48
(UTC+00:00)

Envisat - Pass Details

Date: 27 November 2019
Orbit: 764 x 766 km, 98.1° (Epoch: 13 December)

Event Time Altitude Azimuth Distance (km) Brightness Sun altitude
Rises 18:59:08 0° 196° (SSW) 3,220 6.5 -26.0°
Reaches altitude 10° 19:01:45 10° 209° (SSW) 2,299 5.8 -26.4°
Maximum altitude 19:06:02 27° 267° (W) 1,432 5.0 -27.1°
Drops below altitude 10° 19:10:22 10° 325° (NW) 2,313 5.9 -27.8°
Sets 19:13:01 0° 337° (NNW) 3,244 6.5 -28.3°
